Location: Carr Mill
(33.2054°N, 85.9439°W)
Time: 23:16:20
(UTC+00:00)

Cosmos 1812 Rocket - Pass Details

Date: 29 October 2020
Orbit: 605 x 633 km, 82.5° (Epoch: 28 November)

Event Time Altitude Azimuth Distance (km) Brightness Sun altitude
Rises 23:45:39 0° 166° (SSE) 2,892 7.0 -11.3°
Reaches altitude 10° 23:48:00 10° 158° (SSE) 1,985 6.0 -11.8°
Maximum altitude 23:52:02 36° 92° (E) 979 4.1 -12.6°
Drops below altitude 10° 23:56:03 10° 25° (NNE) 1,982 5.8 -13.4°
Sets 23:58:24 0° 17° (NNE) 2,886 6.7 -13.9°
